Wind_Speed
21 22 22 23 24 25 25 25 25 25 26 26 26 25 25 24 23 23 21 20 19 19 18 18 18 18 18 18 18 17 17 17 16 16 16 16 15 15 15 15 14 14 13 13 13 12 12 12 12
21 22 23 24 25 25 26 25 25 26 27 28 27 26 26 25 25 24 23 22 20 20 20 19 19 19 19 18 19 18 18 18 17 17 17 17 17 17 16 16 16 15 14 14 14 14 13 13 13
22 23 24 25 25 25 26 25 25 26 27 28 28 26 26 25 26 25 24 23 22 21 21 20 20 20 19 19 19 19 19 19 18 18 17 17 17 17 17 17 17 16 16 15 15 15 15 14 14
22 23 24 25 24 25 26 26 26 26 26 27 27 27 27 26 26 25 24 24 23 22 22 22 20 21 21 20 20 20 20 19 19 19 19 18 18 18 18 18 18 18 18 17 16 16 16 16 16
23 24 24 24 24 25 25 26 26 26 26 26 27 26 26 27 26 25 24 24 23 23 24 24 23 22 22 22 21 21 21 20 20 20 20 19 19 18 19 19 19 19 19 18 18 17 17 18 17
23 24 24 23 23 24 24 25 26 25 26 25 26 25 26 27 26 25 25 24 24 23 25 26 25 24 22 22 22 22 22 22 21 21 21 21 20 20 19 20 21 20 20 20 19 19 19 19 18
23 24 23 23 23 23 24 24 24 24 24 24 25 25 25 26 26 25 25 24 24 24 25 26 25 24 23 23 23 23 23 23 23 23 22 22 21 21 21 21 21 21 21 21 21 21 20 20 19
23 23 22 22 23 23 24 23 23 22 23 24 24 24 24 26 25 25 25 24 24 25 24 26 25 25 25 25 25 25 24 24 24 24 23 23 22 22 21 21 21 22 22 22 22 22 22 22 21
22 22 21 21 21 22 23 22 22 22 22 23 24 24 24 25 25 25 25 25 25 26 25 26 26 26 26 25 26 26 25 25 25 25 24 24 24 24 23 22 22 22 22 22 22 22 22 23 23
20 20 19 19 20 21 22 21 21 22 22 22 24 23 25 25 25 26 25 25 25 25 25 25 26 26 27 26 26 27 27 27 27 27 26 26 25 25 24 23 22 22 22 22 22 23 23 23 23
19 19 18 18 19 20 21 21 21 21 22 22 23 23 24 25 26 25 26 25 25 25 25 26 26 26 27 27 27 28 28 29 29 28 28 27 26 25 25 24 23 23 23 23 24 24 23 23 23
19 18 18 18 18 19 19 20 21 19 20 21 22 23 24 25 25 26 26 27 27 27 26 26 26 27 28 27 27 28 29 30 30 29 29 29 29 27 26 25 25 25 25 24 24 24 24 23 23
17 17 17 18 18 19 19 20 20 19 19 20 21 22 24 24 25 25 26 25 27 26 27 27 27 28 28 27 27 28 29 28 29 30 29 29 30 29 28 27 26 25 25 24 24 25 25 24 23
17 17 17 17 18 19 19 20 19 18 19 20 20 22 23 23 24 25 26 26 27 28 28 27 27 28 28 27 26 27 29 28 29 30 30 30 30 29 28 27 27 27 26 26 26 25 25 25 25
18 17 17 16 17 17 18 18 17 18 18 18 20 21 22 22 23 25 25 25 26 28 29 27 27 26 27 27 27 27 26 27 29 31 31 31 31 30 29 28 28 28 28 28 27 27 27 27 26
18 18 17 16 17 17 18 17 16 17 17 18 19 20 22 21 22 24 24 24 25 26 27 27 27 27 27 28 28 27 26 26 27 30 31 31 31 31 30 30 29 29 29 29 29 28 28 28 28
17 18 17 16 15 16 16 16 16 17 17 17 18 20 21 22 22 23 23 23 24 26 26 27 27 27 27 27 28 27 27 27 27 29 30 30 30 30 30 30 30 30 29 30 31 31 30 30 30
17 17 17 16 15 16 16 15 16 18 18 17 18 20 21 21 21 22 23 22 24 26 27 27 28 28 28 27 26 27 27 27 27 28 30 29 30 29 29 30 30 30 30 30 30 30 31 31 31
17 17 16 16 15 15 15 15 15 17 18 18 19 20 20 20 19 20 21 21 23 24 25 26 28 28 28 28 27 26 26 27 27 28 30 30 30 30 29 30 30 30 31 31 31 31 31 31 32
17 17 17 17 16 16 15 15 15 16 17 17 19 20 21 20 20 21 21 22 22 23 24 25 26 27 27 28 28 28 27 27 26 27 29 29 30 31 31 31 31 31 32 32 33 33 33 32 32
17 17 17 17 17 17 17 16 15 16 17 18 18 19 20 20 20 21 22 22 22 23 24 24 25 27 27 28 28 28 30 29 28 28 29 30 31 32 32 32 32 33 33 34 35 35 35 36 36
18 17 18 17 17 17 17 17 15 16 16 17 18 18 19 20 21 21 22 22 23 24 24 24 24 25 27 28 28 29 30 29 28 28 29 30 31 32 33 34 34 34 35 36 36 37 37 38 38
18 18 18 18 18 18 17 18 15 15 16 16 17 18 19 20 21 22 22 22 23 24 25 25 25 25 27 28 29 30 30 30 29 29 30 31 32 33 34 35 35 36 37 37 38 39 39 40 40
18 18 18 18 18 18 17 18 16 16 16 17 18 19 20 21 21 21 22 22 23 24 25 26 27 27 28 28 29 30 30 30 29 30 31 32 33 33 35 37 37 37 39 40 40 41 41 41 42
20 20 20 20 20 19 18 19 17 17 17 18 19 20 21 22 22 23 23 23 23 25 26 27 28 28 29 29 29 30 30 30 31 32 32 33 34 35 36 38 38 39 41 41 42 43 43 43 44
22 21 21 22 22 21 20 20 18 18 18 19 20 21 22 23 23 24 24 25 25 26 27 28 29 30 30 30 30 30 32 32 33 33 34 35 36 37 38 38 39 40 41 42 42 43 43 44 44
23 23 22 23 23 23 23 22 20 20 19 19 20 21 22 23 24 25 26 26 27 27 29 29 30 31 31 31 32 32 33 33 34 35 36 36 37 39 39 40 41 41 42 43 43 44 44 45 45
25 24 23 24 24 24 24 22 21 20 20 20 21 22 23 24 25 26 26 27 28 29 30 31 31 32 32 33 34 34 34 36 36 37 37 39 39 40 41 42 42 43 43 44 44 45 45 46 46
26 26 25 26 26 26 26 24 23 23 23 23 23 24 24 25 26 27 28 29 29 31 32 33 34 35 35 36 36 36 37 38 38 39 40 41 41 42 43 43 44 45 45 46 46 46 46 47 48
28 28 27 28 28 28 28 26 26 25 26 26 26 26 27 28 29 29 30 31 32 32 33 34 36 37 38 39 38 39 40 40 41 42 42 43 44 44 44 45 45 46 47 47 47 46 47 48 49
Wind_Direction
263 264 264 264 264 265 265 263 261 259 259 257 256 253 249 246 246 247 246 244 244 243 238 236 236 236 237 237 238 238 239 238 238 240 241 241 241 241 241 241 242 243 243 243 243 244 243 243 244
266 267 267 266 264 264 263 263 261 259 258 257 256 253 249 246 245 246 244 243 242 243 240 237 235 235 237 235 236 238 240 240 239 240 240 241 242 242 243 243 242 243 243 244 245 246 245 245 246
267 269 269 267 265 264 264 263 262 260 258 257 255 251 249 246 244 244 242 240 241 241 240 237 236 236 238 236 236 236 238 240 239 239 240 241 242 243 243 242 242 243 244 246 247 248 248 249 250
267 269 269 267 265 263 263 263 261 259 257 256 254 250 246 244 241 241 241 239 239 238 237 237 237 238 239 239 237 235 237 238 239 240 240 241 244 245 244 244 245 246 246 247 249 251 250 251 252
267 268 268 267 266 266 264 262 262 261 258 254 251 247 244 242 240 238 238 238 237 237 236 236 238 238 238 238 237 235 236 236 238 240 240 241 243 246 246 246 246 247 247 249 250 253 255 253 253
267 268 268 269 268 267 265 264 262 260 258 253 248 245 242 241 238 236 236 237 237 237 237 236 237 238 239 239 238 236 236 236 237 239 240 241 242 245 247 247 247 247 248 249 251 252 255 256 254
268 268 268 269 269 267 265 263 262 258 255 252 248 244 242 240 238 235 234 235 236 239 238 235 237 237 238 238 237 236 236 237 238 239 240 241 242 244 247 248 249 249 249 251 253 254 254 257 257
268 267 267 268 270 267 263 261 260 255 254 252 249 244 238 235 236 235 233 235 237 239 237 234 236 237 238 238 237 236 236 237 238 238 240 242 242 244 246 249 250 249 250 252 254 254 255 258 259
268 266 267 269 270 266 260 258 258 254 254 253 250 244 237 235 235 236 233 235 237 238 236 234 235 236 237 237 236 237 235 236 237 237 238 242 244 246 247 248 250 251 252 253 255 256 258 259 260
269 268 269 270 270 265 258 257 258 254 251 252 249 244 239 236 235 234 235 236 236 237 235 236 237 239 238 238 236 236 236 235 237 238 239 242 245 246 246 247 249 251 253 254 255 257 259 260 260
269 268 271 272 271 265 259 257 259 257 253 250 248 244 241 237 235 234 234 236 237 237 232 231 235 237 238 238 238 237 238 237 237 237 239 241 243 246 247 247 249 251 254 256 256 257 260 261 261
271 268 269 270 269 266 263 260 260 260 253 249 244 243 240 238 236 233 234 237 237 233 232 233 235 238 238 240 240 240 239 239 238 239 241 241 244 247 247 248 251 253 255 256 257 257 260 261 262
270 269 269 268 267 268 265 264 264 258 255 249 243 242 242 238 235 234 237 241 240 237 237 235 237 239 239 241 242 243 240 240 240 240 241 243 245 247 249 251 250 252 255 255 256 257 259 262 263
271 270 268 267 269 270 267 266 264 257 254 250 247 244 241 236 236 237 240 243 243 242 241 238 240 238 238 239 240 243 243 243 242 242 243 244 247 249 251 252 251 251 253 254 257 258 259 261 263
270 271 267 268 269 271 270 268 265 259 255 252 250 244 242 240 237 238 241 245 244 242 240 238 238 240 241 239 239 242 245 244 244 244 245 247 249 249 250 251 251 252 252 253 256 258 260 261 262
269 270 270 268 267 269 271 271 266 260 256 254 251 247 244 242 239 241 242 244 243 241 239 237 241 245 246 242 240 240 245 246 245 245 246 247 248 248 249 251 253 253 253 253 255 258 259 261 262
267 268 270 270 267 267 269 269 266 262 261 256 252 248 245 246 245 243 242 243 243 242 242 241 245 246 246 244 242 242 245 246 247 248 248 248 247 248 249 250 253 254 254 254 255 257 258 260 261
269 270 270 269 270 270 271 268 265 263 260 256 253 249 247 247 246 243 244 245 245 243 243 245 246 245 245 246 245 244 245 246 250 251 250 250 249 249 250 251 253 255 256 257 258 259 259 260 260
271 271 272 271 272 274 274 267 265 263 261 256 252 250 248 247 246 243 244 246 247 245 243 244 247 246 246 246 245 245 246 249 252 253 251 250 249 249 250 252 254 256 257 259 261 261 263 263 263
269 269 269 270 271 275 276 271 266 264 264 260 252 250 251 249 246 245 247 248 247 245 244 245 248 246 249 248 247 247 248 248 249 251 251 251 251 251 252 253 255 256 258 260 262 263 264 265 265
267 267 268 269 270 273 274 272 269 267 263 258 254 251 250 249 248 249 250 249 247 247 245 247 248 248 250 250 250 249 250 249 251 252 253 253 253 253 253 255 258 258 259 261 263 264 265 266 268
263 265 268 270 270 272 273 273 269 267 266 260 254 252 251 250 250 252 253 251 249 248 247 249 252 252 252 252 252 251 252 253 254 255 257 256 254 255 256 258 258 259 260 261 262 263 265 267 269
260 263 267 268 270 270 270 270 269 266 264 261 255 253 253 252 252 252 253 252 252 251 251 252 253 255 255 254 254 254 254 255 257 259 259 259 256 258 259 259 259 260 262 263 263 264 266 268 269
260 263 265 266 269 269 268 270 269 266 265 262 258 254 254 255 254 252 253 255 255 253 255 255 256 257 258 258 257 255 257 259 260 261 262 262 261 263 263 262 263 263 264 265 265 266 268 268 270
261 263 265 266 267 270 270 271 271 269 266 262 259 255 253 253 253 253 254 255 257 255 257 258 259 259 261 260 260 259 261 262 261 261 262 263 265 265 266 266 266 265 266 266 267 267 268 269 270
261 263 265 268 269 269 269 271 273 270 268 264 259 256 255 254 254 254 256 256 257 257 259 264 262 261 261 261 263 262 263 263 263 263 263 264 265 266 267 268 268 267 267 267 268 268 269 269 271
259 261 264 267 268 269 268 269 271 272 270 265 262 260 259 259 258 257 257 260 261 261 263 265 263 262 262 265 265 267 265 266 266 265 265 266 267 267 269 270 270 269 268 268 268 269 269 270 271
258 260 261 264 267 269 269 269 270 270 269 265 264 263 262 262 261 262 262 263 264 265 266 266 265 263 263 265 267 268 265 266 266 266 267 267 269 270 270 270 271 271 270 270 270 270 270 271 272
257 258 260 262 265 268 270 270 271 272 271 270 268 265 263 262 263 263 263 264 265 266 267 266 265 264 264 265 267 268 267 266 266 266 267 268 269 271 271 272 272 272 272 271 272 271 271 271 272
255 256 258 261 264 266 269 272 271 272 273 272 270 266 264 263 264 264 264 265 266 266 267 266 265 265 265 266 268 269 268 267 267 268 268 269 270 271 272 272 273 273 272 272 273 272 272 272 272
Height
5824 5824 5824 5824 5824 5823 5822 5823 5824 5824 5824 5824 5825 5826 5828 5830 5832 5835 5836 5836 5838 5839 5840 5842 5843 5845 5847 5848 5850 5852 5853 5854 5855 5857 5858 5859 5859 5860 5861 5862 5863 5863 5864 5864 5864 5865 5865 5865 5866
5818 5818 5818 5817 5816 5816 5816 5817 5817 5817 5817 5817 5818 5820 5821 5824 5826 5828 5829 5831 5833 5835 5836 5838 5840 5841 5843 5845 5847 5848 5850 5851 5853 5854 5855 5856 5857 5858 5859 5860 5860 5861 5861 5862 5862 5863 5863 5863 5864
5811 5811 5811 5810 5809 5809 5809 5810 5810 5810 5810 5811 5812 5813 5815 5818 5820 5822 5824 5826 5828 5830 5832 5833 5836 5838 5839 5841 5843 5845 5846 5848 5849 5851 5852 5853 5854 5855 5856 5857 5858 5858 5859 5860 5860 5861 5861 5861 5862
5805 5805 5804 5803 5802 5802 5802 5803 5803 5803 5804 5804 5805 5807 5809 5811 5814 5817 5819 5821 5823 5825 5827 5829 5831 5833 5835 5837 5839 5841 5842 5844 5846 5847 5849 5850 5851 5852 5853 5854 5855 5856 5857 5857 5858 5858 5859 5859 5859
5798 5797 5797 5795 5795 5795 5795 5795 5796 5796 5797 5798 5799 5800 5802 5805 5808 5811 5813 5815 5818 5820 5822 5824 5827 5829 5831 5833 5835 5837 5839 5840 5842 5844 5845 5846 5847 5849 5849 5850 5852 5852 5853 5854 5855 5856 5856 5856 5856
5792 5790 5790 5789 5789 5788 5788 5788 5789 5789 5790 5791 5792 5793 5796 5799 5802 5805 5807 5810 5812 5814 5817 5819 5822 5824 5826 5828 5831 5833 5835 5836 5838 5840 5841 5843 5844 5845 5846 5847 5848 5849 5850 5851 5852 5852 5853 5853 5853
5786 5784 5783 5783 5782 5782 5781 5781 5781 5782 5783 5785 5786 5787 5790 5792 5796 5799 5802 5804 5807 5809 5811 5814 5816 5819 5821 5823 5826 5828 5830 5832 5834 5836 5837 5839 5840 5841 5842 5843 5844 5845 5846 5847 5848 5849 5849 5850 5850
5778 5778 5777 5777 5776 5775 5775 5774 5775 5776 5777 5778 5779 5782 5784 5787 5790 5793 5796 5799 5801 5803 5805 5808 5811 5814 5816 5818 5821 5823 5825 5827 5829 5831 5833 5834 5836 5837 5838 5839 5840 5841 5842 5843 5844 5845 5846 5846 5846
5772 5772 5771 5770 5770 5769 5769 5769 5770 5770 5772 5773 5774 5776 5779 5781 5784 5787 5791 5793 5796 5798 5800 5803 5806 5808 5811 5813 5816 5818 5820 5823 5825 5826 5828 5830 5831 5833 5834 5835 5836 5837 5838 5839 5840 5841 5841 5842 5842
5766 5766 5766 5765 5764 5763 5763 5763 5764 5765 5766 5767 5769 5771 5773 5776 5779 5782 5785 5788 5790 5792 5795 5797 5800 5803 5805 5808 5811 5813 5815 5817 5819 5821 5823 5825 5827 5828 5829 5830 5832 5833 5834 5834 5835 5836 5837 5837 5837
5761 5761 5760 5759 5758 5757 5757 5758 5758 5759 5761 5762 5764 5766 5768 5771 5774 5777 5780 5783 5785 5787 5790 5792 5795 5798 5800 5803 5805 5807 5810 5812 5814 5816 5818 5820 5822 5823 5824 5826 5827 5828 5829 5830 5831 5831 5832 5832 5833
5757 5756 5755 5754 5753 5752 5752 5753 5753 5754 5756 5757 5759 5761 5763 5766 5769 5772 5774 5776 5779 5781 5784 5786 5790 5792 5795 5797 5800 5802 5804 5806 5809 5811 5812 5814 5816 5818 5819 5821 5822 5823 5824 5825 5826 5826 5827 5828 5828
5752 5752 5751 5750 5749 5748 5747 5748 5748 5750 5751 5752 5754 5756 5758 5760 5763 5766 5768 5770 5773 5776 5779 5781 5784 5786 5789 5791 5793 5795 5798 5800 5802 5805 5807 5808 5810 5812 5814 5815 5816 5817 5818 5819 5820 5821 5822 5823 5823
5749 5748 5747 5746 5744 5744 5743 5743 5744 5746 5746 5747 5749 5750 5753 5755 5758 5760 5763 5765 5767 5770 5772 5775 5777 5779 5782 5785 5787 5789 5791 5794 5796 5799 5801 5803 5804 5806 5808 5809 5810 5811 5813 5814 5815 5816 5817 5817 5818
5745 5744 5743 5742 5741 5741 5740 5740 5741 5742 5741 5742 5744 5745 5747 5750 5753 5755 5757 5759 5761 5763 5765 5768 5771 5773 5775 5778 5780 5783 5785 5787 5790 5792 5794 5796 5798 5799 5801 5802 5804 5806 5807 5808 5809 5810 5811 5811 5812
5741 5740 5740 5739 5738 5737 5738 5737 5737 5737 5738 5739 5740 5741 5743 5745 5748 5750 5752 5754 5755 5757 5759 5762 5764 5766 5769 5771 5774 5777 5779 5781 5783 5785 5788 5789 5791 5793 5794 5796 5798 5799 5800 5802 5803 5804 5805 5805 5806
5736 5736 5736 5736 5734 5734 5733 5733 5733 5732 5733 5734 5735 5737 5739 5741 5743 5745 5746 5748 5750 5752 5755 5757 5759 5761 5763 5765 5768 5771 5773 5775 5777 5779 5781 5783 5784 5786 5788 5790 5791 5793 5794 5795 5797 5797 5798 5799 5799
5733 5733 5732 5732 5731 5730 5730 5730 5730 5728 5729 5731 5731 5733 5735 5736 5738 5740 5741 5743 5745 5747 5749 5751 5753 5755 5757 5759 5762 5765 5767 5769 5770 5772 5774 5776 5777 5779 5781 5783 5784 5786 5787 5788 5790 5790 5791 5792 5792
5730 5729 5729 5729 5728 5727 5727 5727 5726 5725 5725 5727 5728 5729 5730 5732 5734 5735 5736 5738 5739 5741 5744 5746 5747 5749 5751 5754 5756 5758 5760 5763 5764 5766 5768 5769 5771 5773 5774 5776 5777 5779 5780 5781 5782 5783 5783 5784 5785
5725 5725 5725 5725 5724 5723 5723 5723 5723 5722 5722 5722 5723 5724 5726 5727 5729 5730 5731 5733 5734 5736 5738 5740 5742 5744 5746 5748 5750 5752 5754 5756 5758 5759 5761 5763 5764 5766 5767 5769 5770 5772 5773 5774 5775 5776 5776 5776 5777
5721 5721 5721 5721 5720 5719 5719 5719 5719 5719 5718 5718 5719 5720 5721 5723 5724 5726 5727 5728 5729 5731 5733 5735 5737 5738 5740 5742 5744 5746 5748 5750 5752 5753 5755 5756 5757 5759 5760 5762 5763 5764 5765 5766 5767 5768 5768 5769 5769
5717 5717 5717 5716 5716 5715 5715 5714 5715 5714 5714 5714 5715 5716 5717 5719 5720 5721 5722 5723 5724 5726 5728 5730 5731 5732 5734 5736 5738 5740 5742 5744 5745 5747 5748 5749 5750 5751 5753 5754 5755 5756 5757 5758 5758 5759 5759 5760 5760
5713 5713 5712 5712 5711 5711 5711 5710 5712 5710 5710 5710 5711 5712 5713 5714 5716 5717 5718 5718 5719 5720 5722 5724 5726 5727 5728 5730 5732 5734 5735 5737 5738 5739 5741 5741 5743 5744 5745 5746 5746 5747 5748 5748 5749 5749 5750 5750 5750
5708 5708 5707 5707 5706 5707 5707 5705 5707 5706 5706 5706 5707 5708 5709 5710 5711 5712 5713 5713 5714 5715 5717 5718 5720 5721 5722 5723 5725 5727 5728 5730 5731 5732 5733 5734 5735 5735 5736 5737 5737 5737 5738 5739 5739 5739 5740 5740 5740
5702 5703 5702 5701 5701 5702 5701 5700 5702 5702 5701 5701 5702 5703 5703 5705 5705 5707 5708 5709 5709 5710 5711 5712 5713 5714 5715 5717 5718 5719 5721 5722 5723 5724 5725 5726 5726 5727 5727 5727 5727 5728 5728 5728 5728 5729 5729 5729 5729
5696 5697 5697 5697 5696 5696 5696 5695 5697 5696 5696 5695 5696 5697 5698 5699 5700 5701 5702 5703 5704 5704 5705 5706 5706 5707 5709 5710 5711 5712 5713 5714 5715 5716 5716 5717 5717 5717 5717 5717 5717 5717 5717 5717 5717 5717 5718 5718 5717
5690 5690 5691 5691 5690 5690 5690 5691 5691 5691 5690 5690 5690 5691 5692 5693 5694 5695 5696 5697 5697 5698 5699 5699 5700 5701 5702 5702 5703 5704 5705 5705 5706 5706 5706 5707 5707 5707 5707 5707 5707 5706 5706 5706 5706 5706 5706 5706 5705
5683 5684 5684 5683 5683 5683 5684 5684 5685 5685 5685 5685 5685 5685 5685 5686 5687 5688 5689 5690 5690 5690 5691 5692 5693 5693 5694 5694 5695 5695 5696 5696 5696 5697 5697 5697 5697 5697 5696 5696 5696 5695 5695 5694 5694 5694 5693 5693 5693
5676 5677 5676 5676 5676 5677 5677 5680 5679 5679 5679 5678 5678 5678 5678 5679 5680 5680 5681 5682 5682 5683 5683 5684 5684 5684 5685 5685 5685 5685 5685 5686 5686 5686 5686 5686 5686 5685 5685 5685 5684 5683 5683 5682 5681 5681 5680 5680 5680
5667 5668 5669 5670 5670 5669 5670 5674 5671 5671 5671 5671 5670 5670 5671 5671 5672 5672 5673 5673 5674 5674 5675 5675 5675 5675 5675 5675 5675 5675 5675 5675 5675 5675 5675 5674 5674 5674 5673 5672 5671 5671 5670 5669 5668 5668 5667 5666 5666